Location: Unspecified
(0.0000°N, 0.0000°E)
Time: 12:46:15
(UTC+00:00)

Vanguard 3 - Pass Details

Date: 10 December 2017
Orbit: 508 x 3264 km, 33.3° (Epoch: 18 June)

Event Time Altitude Azimuth Distance (km) Brightness Sun altitude
Rises 20:44:09 0° 309° (NW) 4,204 11.0 -38.7°
Reaches altitude 10° 20:46:29 10° 310° (NW) 3,510 10.5 -39.2°
Enters shadow 20:53:27 61° 324° (NW) 2,108 9.0 -40.7°
Maximum altitude 20:56:04 82° 37° (NE) 2,107 - -41.3°
Exits shadow 21:12:25 12° 124° (ESE) 5,682 11.2 -44.7°
Drops below altitude 10° 21:13:07 10° 124° (ESE) 5,854 11.3 -44.9°
Sets 21:18:15 0° 124° (SE) 7,087 11.8 -45.9°
